Regional Weather Roundup
Issued by NWS Grand Forks, ND

Home | Current Version | Previous Version | Graphics & Text | Print | Product List | Glossary On
Versions: 1 2 3 4 5 6 7 8 9 10 11 12 13 14 15 16 17 18 19 20 21 22 23 24 25 26 27 28 29 30 31 32 33 34 35 36 37 38 39 40 41 42 43 44 45 46 47 48 49 50
764
ASUS43 KFGF 111531
RWRFGF
PRAIRIE TO PINES  WEATHER ROUNDUP
NATIONAL WEATHER SERVICE EASTERN NORTH DAKOTA/GRAND FORKS ND
900 AM CST THU FEB 11 2016

 **SATELLITE DATA USED TO AUGMENT SKY COVER AT AUTOMATED STATIONS**
 *****  WEATHER ACROSS EASTERN NORTH DAKOTA  *****

CITY           SKY/WX    TMP DP  RH WIND       PRES   REMARKS
GRAND FORKS    CLOUDY     7   0  73 S6        30.26S WCI  -3
GRAND FRKS AFB CLOUDY     9   1  72 S6        30.25R WCI  -1
DEVILS LAKE    FLURRIES   8   4  83 S3        30.18S
FARGO          CLOUDY     8  -1  66 SE3       30.26F
WAHPETON ARPT  CLOUDY     9   1  72 SE3       30.27S
$$

 ***** WEATHER ACROSS CENTRAL AND WESTERN NORTH DAKOTA  *****

CITY           SKY/WX    TMP DP  RH WIND       PRES   REMARKS
BISMARCK       LGT SNOW  20  15  81 E6        30.12S VSB 1   WCI  12
MINOT          CLOUDY    15   7  70 NE5       30.14R WCI   8
JAMESTOWN      CLOUDY     8   5  87 S7        30.16F FOG     WCI  -3
MINOT AFB      CLOUDY    12   9  85 E2        30.14R
GARRISON         N/A     16  12  84 E7        30.10S WCI   6
WILLISTON      LGT SNOW  22  18  85 NE6       30.09R FOG     WCI  14
DICKINSON      LGT SNOW  22  19  89 E8        29.99S VSB 3/4 WCI  12
HETTINGER      CLOUDY    30  28  92 VRB3      30.01R FOG
$$

 *****  OTHER AIRPORT OBSERVATIONS IN OUR AREA  *****

CITY           SKY/WX    TMP DP  RH WIND       PRES   REMARKS
WALHALLA       HVY SNOW   9   7  92 CALM      30.23S
GRAFTON AIRPOR CLOUDY     7   1  78 S7        30.27S WCI  -5
VALLEY CITY AR CLOUDY     7   5  92 SE6       30.20F WCI  -3
CANDO          FLURRIES   9   5  85 CALM      30.21R
CAVALIER APRT  FLURRIES   7   3  85 SW6       30.24S WCI  -3
GWINNER        CLOUDY    10   7  85 E6        30.21S WCI   1
SHEYENNE NWR     N/A      6   1  82 E3        29.95S
ROLLA          FLURRIES   9   5  85 N5        30.15S WCI   0
 ***** THE ABOVE OBSERVATIONS ARE NON NWS ARE NOT QUALITY
       CONTROLLED AND MAY MIS-REPORT RAIN FOR SNOW...
$$

  *****  WEATHER ACROSS NORTHERN MINNESOTA  *****

CITY           SKY/WX    TMP DP  RH WIND       PRES   REMARKS
FLAG ISLAND    CLOUDY    -2  -9  71 CALM      30.20S
WARROAD        PTSUNNY   -2  -8  78 SW7       30.22S WCI -16
ROSEAU         CLOUDY    -4  -9  77 SW3       30.23F
HALLOCK        CLOUDY     7   0  72 S7        30.24F WCI  -5
THF RVR FALLS  CLOUDY     1  -4  78 S3        30.24S
BAUDETTE       CLOUDY    -6 -12  75 SW3       30.20F
WASKISH        CLOUDY    -2  -8  78 SW5       30.22S WCI -12
CROOKSTON      CLOUDY     5   0  78 S5        30.26F WCI  -4
STEPHEN NDAWN    N/A      3  -2  78 S6          N/A  WCI  -8
GREENBUSH NDAW   N/A      1  -2  85 SW2         N/A
$$
  *****  WEATHER ACROSS CENTRAL AND WEST MINNESOTA  *****

CITY           SKY/WX    TMP DP  RH WIND       PRES   REMARKS
FOSSTON        CLOUDY    -2  -8  78 S5        30.22S WCI -12
BEMIDJI        CLOUDY   -10 -15  79 CALM      30.21S
PARK RAPIDS    CLOUDY   -12 -17  78 SW3       30.22S
ELBOW LAKE     CLOUDY     8   3  82 E7        30.25S WCI  -4
WADENA         CLOUDY     1  -6  71 SE3       30.23F
DETROIT LAKES  CLOUDY     3   0  85 SE6       30.22F WCI  -8
MOORHEAD       CLOUDY     7   0  72 CALM      30.27S
FERGUS FALLS   CLOUDY     9   3  78 CALM      30.28S
MORRIS MN      CLOUDY     9   5  85 SE5       30.25R WCI   0
STAPLES        CLOUDY    -2  -8  78 CALM      30.25R
$$
  *****  WEATHER ELSEWHERE ACROSS MINNESOTA  *****

CITY           SKY/WX    TMP DP  RH WIND       PRES   REMARKS
DULUTH         PTSUNNY   -7 -13  75 W9        30.21R WCI -24
INTRNTL FALLS  CLOUDY    -4 -10  75 SW6       30.21S WCI -16
ELY            CLOUDY    -9 -15  77 CALM      30.19S
CLOQUET        CLOUDY    -6 -11  77 W3        30.24S
WHEATON        CLOUDY     9   7  92 SE5       30.28S WCI   0
BRAINERD       CLOUDY    -9 -14  78 CALM      30.26F HAZE
HIBBING        CLOUDY   -12 -16  82 CALM      30.22S
ALEXANDRIA     CLOUDY     6  -3  66 SE8       30.23F WCI  -7
SAINT CLOUD    CLOUDY     2  -5  72 CALM      30.29F
MINNEAPOLIS    CLOUDY     6  -3  66 CALM      30.33S
$$

  *****  WEATHER ACROSS SOUTH DAKOTA  *****

CITY           SKY/WX    TMP DP  RH WIND       PRES   REMARKS
SIOUX FALLS    CLOUDY    14   5  67 SE9       30.24F WCI   2
BROOKINGS      CLOUDY    12   7  79 S10       30.20F WCI  -1
WATERTOWN      CLOUDY    13   7  77 S10       30.18S WCI   0
HURON          CLOUDY    18  13  80 S12       30.20S WCI   5
SISSETON         N/A      9   3  77 S6        30.23S WCI  -1
ABERDEEN       LGT SNOW  17  12  80 S8        30.19F WCI   7
MITCHELL       CLOUDY    19  14  81 SE9       30.22S WCI   8
PIERRE         CLOUDY    24  22  91 SE13      30.08F WCI  12
MOBRIDGE       LGT SNOW  22  19  89 SE10      30.06F FOG     WCI  11
RAPID CITY     FOG       29  28  96 CALM      30.01R VSB 1
$$

  *****  SOME WEATHER IN NEARBY STATES *****

CITY           SKY/WX    TMP DP  RH WIND       PRES   REMARKS
GLASGOW MT     LGT SNOW  28  25  88 E7        30.05R FOG     WCI  21
GREAT FALLS MT PTCLDY    36  24  62 SW12      30.13R
CHEYENNE WY    CLOUDY    45  16  31 W23G33    30.11F
SCOTTSBLUFF NE PTSUNNY   36  26  67 NW8       30.08R
OMAHA NE       CLOUDY    15   4  61 E7        30.31F WCI   5
DES MOINES IA  CLOUDY    11  -1  58 NE3       30.35R
DAVENPORT IA   SUNNY     12   2  64 NE6       30.35R WCI   3
CHICAGO IL     MOSUNNY   11  -1  58 N9        30.30R WCI  -2
EAU CLAIRE WI  SUNNY     -1  -6  79 CALM      30.31S
LA CROSSE WI   SUNNY      1  -4  79 CALM      30.35S
$$

  *****  SOME NATIONAL WEATHER *****

CITY           SKY/WX    TMP DP  RH WIND       PRES   REMARKS
LA GUARDIA NY  MOSUNNY   26   0  32 W23G33    29.91R WCI  11
RALEIGH NC     SUNNY     29   6  38 NW12G18   30.21R WCI  19
ATLANTA GA     SUNNY     38  14  37 E3        30.20R
NEW ORLEANS LA SUNNY     61  50  67 SW13      30.23R
OKLAHOMA CITY  MOSUNNY   43  32  65 N12       30.16R
ALBUQUERQUE NM SUNNY     33  21  61 W3        30.35R
SALT LAKE CITY FOG       28  27  96 SE7       30.47F VSB 1/2 WCI  21
LOS ANGELES CA CLEAR     64  31  28 CALM      30.08R
BOISE ID       CLEAR     32  27  81 SE7       30.40F
SEATTLE WA     CLOUDY    47  45  93 NW7       30.18F
$$

*** WEATHER ACROSS MANITOBA...SASKATCHEWAN AND ONTARIO ***
                ***ONTARIO***

CITY           SKY/WX    TMP DP  RH WIND       PRES   REMARKS
GERALDTON      PTSUNNY  -13 -18  77 W7        30.03F WCI -29
THUNDER BAY    PTSUNNY   -6 -11  77 W8        30.21F WCI -21
SIOUX LOOKOUT  FLURRIES  -2  -8  78 W8        30.10F WCI -17
TORONTO        MOSUNNY    5  -4  66 N10       30.03R WCI -10
BIG TROUT LK   CLOUDY   -18 -26  69 NW12      29.97  HAZE    WCI -40
PICKLE LAKE    CRYSTALS -11 -17  77 W12G17    29.99F WCI -31
DRYDEN         CLOUDY    -4  -8  84 W10       30.12F WCI -21
KENORA         PTSUNNY   -4  -9  77 W6        30.16F WCI -16
$$
                *** MANITOBA***

CITY           SKY/WX    TMP DP  RH WIND       PRES   REMARKS
BRANDON        FLURRIES   7   1  78 NE5       30.21R WCI  -2
DAUPHIN        FLURRIES   5   1  85 N6        30.27R WCI  -6
ISLAND LAKE    PTCLDY   -18 -24  76 NW10      30.12S WCI -39
PILOT MOUND      N/A      7   3  85 N2          N/A
THE PAS        PTCLDY   -13 -18  77 NW10      30.31R WCI -32
THOMPSON       MOCLDY   -18 -26  69 NW7       30.18S WCI -35
WINNIPEG       FLURRIES   1  -4  78 SW5       30.25S WCI  -8
LYNN LAKE      CLEAR    -20 -26  76 NW12G17   30.21S WCI -42
CHURCHILL      CRYSTALS -27 -35  68 N23G30    30.12S BLWGSNOWWCI -60
GILLAM         PTCLDY   -26 -33  68 NW10      30.12R WCI -48
$$
                ***SASKATCHEWAN***

CITY           SKY/WX    TMP DP  RH WIND       PRES   REMARKS
ESTEVAN        FLURRIES  12   9  85 E8        30.13S WCI   1
KINDERSLEY     MOCLDY    14  10  85 E10       30.15R WCI   1
LLOYDMINSTER   CLOUDY    12   9  85 E10       30.19R WCI  -1
PRINCE ALBERT  FLURRIES   5   1  85 CALM      30.29R
REGINA         FLURRIES  16  10  79 E2        30.16R
YORKTON        FLURRIES   5   1  85 N10       30.20S WCI -10
N. BATTLEFORD  FLURRIES   9   7  92 E10       30.25R WCI  -6
LA RONGE       PTCLDY   -22 -27  76 VRB2      30.34R
SASKATOON      MOCLDY     7   3  85 E8        30.26R WCI  -6
SWIFT CURRENT  LGT SNOW  16  16 100 E14       30.07R WCI   1
$$
NOTE: THESE ARE AUTOMATED STATIONS WITH LIMITED QUALITY CONTROL
      "FAIR" INDICATES FEW OR NO CLOUDS BELOW 12,000 FEET WITH NO
      SIGNIFICANT WEATHER AND/OR OBSTRUCTIONS TO VISIBILITY.
      SKY/WX - SKY CONDITION AND SIGNIFICANT WEATHER.
      TMP - AIR TEMPERATURE.    DP   - DEWPOINT TEMPERATURE.
      RH  - RELATIVE HUMIDITY.  PRES - PRESSURE.
      HX  - HEAT INDEX.         WCI  - WIND CHILL INDEX.
$




USA.gov is the U.S. government's official web portal to all federal, state and local government web resources and services.